Regional Weather Roundup
Issued by NWS

Home | Current Version | Previous Version | Text Only | Print | Product List | Glossary On
Versions: 1 2 3 4 5 6 7 8 9 10 11 12 13 14 15 16 17 18 19 20 21 22 23 24 25 26 27
000
ASUS45 KBOU 250210
RWRCO

WEATHER ROUNDUP FOR COLORADO
NATIONAL WEATHER SERVICE DENVER/BOULDER CO
800 PM MDT FRI JUN 24 2022

NOTE: "FAIR" INDICATES FEW OR NO CLOUDS BELOW 12000 FEET WITH NO
SIGNIFICANT WEATHER AND/OR OBSTRUCTIONS TO VISIBILITY.

COZ001>005-013-030-031-250300-
...NORTHWEST COLORADO...

CITY           SKY/WX    TMP DP  RH WIND       PRES   REMARKS
CRAIG          FAIR      68  43  40 S10       30.16S
HAYDEN         FAIR      67  46  47 CALM      30.20F
MEEKER         FAIR      69  43  38 E5        30.18R
RANGELY        FAIR      78  41  26 W5        30.08S
RABBIT EARS PA FAIR      45  45 100 W5        30.46S
STEAMBOAT SPGS FAIR      63  49  60 E5        30.20S
WALDEN         FAIR      55  45  67 SW6       30.30R
$$

COZ006>008-011-250300-
...WEST CENTRAL VALLEYS...

CITY           SKY/WX    TMP DP  RH WIND       PRES   REMARKS
GRAND JUNCTION FAIR      83  39  21 E7        30.02R
MONTROSE       FAIR      78  40  25 E5        30.09F
EAGLE          FAIR      66  49  54 NE7       30.22R
RIFLE          FAIR      76  39  26 S7        30.11R
DELTA          FAIR      83  40  22 CALM      30.06S
NUCLA          NOT AVBL
$$

COZ017>023-064>068-250300-
...SOUTHWEST COLORADO...

CITY           SKY/WX    TMP DP  RH WIND       PRES   REMARKS
DURANGO        FAIR      78  35  21 NW8       30.14R
CORTEZ         FAIR      80  38  22 N5        30.09R
PAGOSA SPRINGS FAIR      76  26  15 SW10      30.22R
TELLURIDE      MOCLDY    63  36  36 CALM      30.38R
WOLF CREEK PAS FAIR      52  32  46 SW8G20      N/A
$$

COZ009-010-012-014-032>034-037-058>063-250300-
...CENTRAL COLORADO...

CITY           SKY/WX    TMP DP  RH WIND       PRES   REMARKS
ASPEN          FAIR      56  45  66 SW5       30.28S
BUENA VISTA      N/A     66  33  29 W7        30.27R
COPPER MTN     FAIR      46  36  66 W12       30.56S
BERTHOUD PASS    N/A     37  34  87 NW16      30.55F
COTTONWOOD PAS FAIR      59 N/A N/A N3        30.41R
GUNNISON       FAIR      63  45  51 N6        30.28R
GRANBY         FAIR      60   6  11 CALM      30.32S
KREMMLING      FAIR      61  45  55 CALM      30.28R
LEADVILLE      FAIR      53  36  52 NW10      30.42R
SALIDA         CLOUDY   N/A N/A N/A W15G22    30.31R
SUNLIGHT       FAIR      50  32  50 W3        30.50S
WILKERSON PASS NOT AVBL
$$

COZ069>075-250300-
...SAN LUIS VALLEY/SANGRE DE CRISTO MOUNTAINS...

CITY           SKY/WX    TMP DP  RH WIND       PRES   REMARKS
ALAMOSA        FAIR      69  41  36 N17G29    30.21R
DEL NORTE      FAIR      64  41  44 N13       30.26S
LA VETA PASS   FAIR      61  34  36 W3        30.42R
SAGUACHE         N/A     63  41  45 NW18G24   30.28R
$$

COZ035-036-038>040-250300-
...NORTHERN COLORADO FRONT RANGE...

CITY           SKY/WX    TMP DP  RH WIND       PRES   REMARKS
DENVER INTL AP MOCLDY    71  47  42 NW12      30.09R
AURORA         MOCLDY    69  48  47 W14       30.12R
WATKINS        NOT AVBL
ERIE           FAIR      71  50  48 NW3       30.09R
BOULDER        FAIR      70  50  49 CALM      30.10R
CENTENNIAL     MOCLDY    70  46  42 W9        30.13R
BROOMFIELD     MOCLDY    70  48  46 NW7       30.13R
FORT COLLINS   FAIR      71  50  47 W5        30.08R
LONGMONT       FAIR      71  54  56 CALM      30.10S
$$

COZ041-046-047-076>085-087-088-250300-
...PIKES PEAK/PALMER DIVIDE AND SOUTHERN FOOTHILLS...

CITY           SKY/WX    TMP DP  RH WIND       PRES   REMARKS
COLO. SPRINGS  MOCLDY    80  41  24 NE9       30.09R
A. F. ACADEMY  MOCLDY    71  41  33 N18G29    30.14R
SCHRIEVER AFB  NOT AVBL
CHEYENNE MTN   MOCLDY    74  40  30 N10       30.23R
ELLICOTT       MOCLDY    75  45  33 NE8G29    30.12R
FALCON         CLOUDY    73  41  32 N14G28    30.17R
FORT CARSON    MOCLDY    79  39  24 E9        30.04R
LIMON          FAIR      76  42  29 N14       30.03R
MONUMENT HILL  FAIR      66 -29   2 NW17      30.22R
CANON CITY     NOT AVBL
WALSENBURG     NOT AVBL
TRINIDAD       FAIR      82  43  25 SW12      30.03R
$$

COZ042>045-048>051-090-091-250300-
...NORTHEAST COLORADO...

CITY           SKY/WX    TMP DP  RH WIND       PRES   REMARKS
GREELEY        FAIR      71  52  50 NE3       30.05F
AKRON          FAIR      75  43  31 NW16      29.99F
BURLINGTON     TSTM      70  57  63 N14       29.97F
WRAY           FAIR      81  45  28 NW26G36   29.90R
YUMA           FAIR      77  12   8 NW12      29.95R
STERLING       FAIR      81  46  30 W15       29.93F
HOLYOKE        FAIR      84  41  21 NW13G20   29.91R
FORT MORGAN    MOCLDY    77  43  29 W23G33    29.98S
$$

COZ086-089-092>099-250300-
...SOUTHEAST COLORADO...

CITY           SKY/WX    TMP DP  RH WIND       PRES   REMARKS
PUEBLO         LGT RAIN  82  47  29 N15G21    29.98R
LA JUNTA       FAIR      84  43  23 N23G38    29.91R
LAMAR          FAIR      91  47  21 CALM      29.82S
SPRINGFIELD    NOT AVBL
$$



USA.gov is the U.S. government's official web portal to all federal, state and local government web resources and services.